Location: Maiden
(35.5760°N, 81.2120°W)
Time: 03:18:47
(UTC-04:00)

Cosmos 1633 - Pass Details

Date: 02 August 2020
Orbit: 462 x 482 km, 82.5° (Epoch: 12 August)

Event Time Altitude Azimuth Distance (km) Brightness Sun altitude
Exits shadow 21:21:45 - 171° (S) 2,006 5.3 -10.7°
Reaches altitude 10° 21:22:42 10° 167° (SSE) 1,620 4.8 -10.9°
Maximum altitude 21:26:06 46° 93° (E) 638 2.8 -11.5°
Drops below altitude 10° 21:29:30 10° 20° (NNE) 1,623 5.4 -12.1°
Sets 21:31:38 0° 14° (NNE) 2,501 6.4 -12.4°
